Location: Bacharowice
(49.9333°N, 19.5833°E)
Time: 07:57:41
(UTC+00:00)

Cosmos 1733 Rocket - Pass Details

Date: 11 May 2021
Orbit: 603 x 628 km, 82.5° (Epoch: 21 June)

Event Time Altitude Azimuth Distance (km) Brightness Sun altitude
Rises 21:20:16 0° 349° (N) 2,875 8.0 -19.8°
Reaches altitude 10° 21:22:29 10° 349° (N) 1,965 6.8 -19.9°
Maximum altitude 21:26:51 86° 261° (W) 613 2.9 -20.2°
Enters shadow 21:27:50 53° 176° (S) 745 3.0 -20.2°
